Regional Weather Roundup
Issued by NWS Grand Forks, ND

Home | Current Version | Previous Version | Text Only | Print | Product List | Glossary Off
Versions: 1 2 3 4 5 6 7 8 9 10 11 12 13 14 15 16 17 18 19 20 21 22 23 24 25 26 27 28 29 30 31 32 33 34 35 36 37 38 39 40 41 42 43 44 45 46 47 48 49 50

000
ASUS43 KFGF 282331
RWRFGF
PRAIRIE TO PINES  WEATHER ROUNDUP
NATIONAL WEATHER SERVICE EASTERN NORTH DAKOTA/GRAND FORKS ND
500 PM CST WED JAN 28 2015

 **SATELLITE DATA USED TO AUGMENT SKY COVER AT AUTOMATED STATIONS**
 *****  WEATHER ACROSS EASTERN NORTH DAKOTA  *****

CITY           SKY/WX    TMP DP  RH WIND       PRES   REMARKS
GRAND FORKS    LGT RAIN  34  30  86 N20G25    29.85R FOG     WCI  22
GRAND FRKS AFB CLOUDY    32  30  93 N18G24    29.88R WCI  20
GRAND FRKS NWS   N/A     32 N/A N/A N26         N/A  WCI  18
DEVILS LAKE    CLOUDY    28  25  86 NW22G28   29.92R WCI  15
FARGO          CLOUDY    35  32  88 NW14      29.83R FOG
WAHPETON ARPT  CLOUDY    32  32 100 CALM      29.82R
$$

 ***** WEATHER ACROSS CENTRAL AND WESTERN NORTH DAKOTA  *****

CITY           SKY/WX    TMP DP  RH WIND       PRES   REMARKS
BISMARCK       CLOUDY    33  28  81 NW23G32   30.00R WCI  21
MINOT          CLOUDY    28  25  88 NW16G28   30.03R WCI  16
JAMESTOWN      CLOUDY    32  30  92 NW23G30   29.86R WCI  19
MINOT AFB      CLOUDY    29  29 100 NW20      30.03R WCI  16
GARRISON         N/A     30  28  92 NW29G37   30.02R WCI  15
WILLISTON      CLOUDY    34  29  82 NW17G24   30.15R WCI  23
DICKINSON      CLOUDY    32  28  85 NW23G33   30.05R WCI  19
HETTINGER      CLOUDY    32  28  85 NW29G38   30.04R WCI  18
$$

 *****  OTHER AIRPORT OBSERVATIONS IN OUR AREA  *****

CITY           SKY/WX    TMP DP  RH WIND       PRES   REMARKS
WALHALLA         N/A     25  25 100 NW23      29.94R WCI  10
GRAFTON AIRPOR NOT AVBL
VALLEY CITY AR FLURRIES  32  32 100 N18G28    29.85R WCI  20
CANDO          CLOUDY    27  27 100 NW21G26   29.97R WCI  13
CAVALIER APRT  CLOUDY    27  27 100 NW17G26   29.92R FOG     WCI  14
GWINNER        CLOUDY    34  34 100 N22       29.84R WCI  22
ROLLA          CLOUDY    21  21 100 N21G29    29.96R WCI   6
 ***** THE ABOVE OBSERVATIONS ARE NON NWS ARE NOT QUALITY
       CONTROLLED AND MAY MIS-REPORT RAIN FOR SNOW...
$$

  *****  WEATHER ACROSS NORTHERN MINNESOTA  *****

CITY           SKY/WX    TMP DP  RH WIND       PRES   REMARKS
FLAG ISLAND    CLOUDY    28  28 100 CALM      29.81R FOG
WARROAD        CLOUDY    32  28  86 NW3       29.82R FOG
ROSEAU         FOG       34  28  80 NW5       29.82R VSB 1
HALLOCK        CLOUDY    32  30  93 MISG      29.86R FOG
THF RVR FALLS  CLOUDY    32  30  93 NW9       29.82R VSB 1   WCI  24
BAUDETTE       CLOUDY    31  30  96 S3        29.79R FOG
WASKISH        MIX PCPN  30  30 100 CALM      29.80R
CROOKSTON      CLOUDY    32  32 100 N10       29.84R FOG     WCI  24
STEPHEN NDAWN    N/A     34  34 100 N12         N/A
GREENBUSH NDAW   N/A     32  32 100 NW7         N/A
$$
  *****  WEATHER ACROSS CENTRAL AND WEST MINNESOTA  *****

CITY           SKY/WX    TMP DP  RH WIND       PRES   REMARKS
FOSSTON        CLOUDY    30  28  93 W6        29.81R FOG     WCI  24
BEMIDJI        FOG       31  31  99 CALM      29.78R VSB 3/4
PARK RAPIDS    CLOUDY    31  31 100 S3        29.78R FOG
ELBOW LAKE     FOG       31  31 100 S7        29.79R VSB 1/4 WCI  24
WADENA         FOG       28  28 100 CALM      29.79R VSB 3/4
DETROIT LAKES  CLOUDY    32  32 100 W3        29.80R FOG
MOORHEAD       CLOUDY    34  34 100 W5        29.83R FOG
FERGUS FALLS   FOG       32  32 100 SW3       29.83R VSB 3/4
MORRIS MN      FOG       32  30  93 CALM      29.79R VSB 1/2
STAPLES        CLOUDY    28  28 100 S5        29.79R FOG     WCI  23
$$
  *****  WEATHER ELSEWHERE ACROSS MINNESOTA  *****

CITY           SKY/WX    TMP DP  RH WIND       PRES   REMARKS
DULUTH         CLOUDY    29  22  75 S6        29.80R WCI  23
INTRNTL FALLS  CLOUDY    27  25  92 VRB5      29.80S FOG     WCI  22
ELY            CLOUDY    27  23  86 S6        29.80F WCI  20
CLOQUET        CLOUDY    28  23  80 SW3       29.81S
WHEATON        CLOUDY    32  30  93 CALM      29.82R FOG
BRAINERD       CLOUDY    29  26  89 S5        29.80R FOG     WCI  24
HIBBING        CLOUDY    28  22  78 S3        29.80S
ALEXANDRIA     FOG       31  30  96 S3        29.79R VSB 1
SAINT CLOUD    CLOUDY    29  27  92 SE6       29.80R FOG     WCI  23
MINNEAPOLIS    CLOUDY    31  27  85 E6        29.82R FOG
$$

  *****  WEATHER ACROSS SOUTH DAKOTA  *****

CITY           SKY/WX    TMP DP  RH WIND       PRES   REMARKS
SIOUX FALLS    MOCLDY    43  35  73 NW5       29.72R
BROOKINGS      NOT AVBL
WATERTOWN      MOCLDY    37  32  82 NW9       29.75R
HURON          PTCLDY    41  36  82 NW10      29.78R
SISSETON         N/A     36  33  89 NW5       29.78R
ABERDEEN       CLOUDY    37  33  85 N21G32    29.86R
MITCHELL       CLEAR     47  39  74 N17       29.76R
PIERRE         CLOUDY    49  34  56 NW35G43   29.86R
MOBRIDGE       CLOUDY    36  30  79 NW25G37   29.91R
RAPID CITY     CLOUDY    49  30  48 N30G40    29.99R
$$

  *****  SOME WEATHER IN NEARBY STATES *****

CITY           SKY/WX    TMP DP  RH WIND       PRES   REMARKS
GLASGOW MT     PTCLDY    38  30  73 NW16      30.23R
GREAT FALLS MT CLOUDY    42  32  67 NE8       30.29R
CHEYENNE WY    CLOUDY    47  29  49 NW29G41   30.11R
SCOTTSBLUFF NE CLOUDY    48  38  68 NW17      30.10R
OMAHA NE       PTCLDY    57  36  45 W3        29.69R
DES MOINES IA  CLOUDY    51  37  58 SE5       29.70S
DAVENPORT IA   MOCLDY    35  28  75 SE20      29.87F WCI  24
CHICAGO IL     CLOUDY    32  22  66 SE20      30.02F WCI  20
EAU CLAIRE WI  MOCLDY    29  23  78 SE9       29.83S WCI  20
LA CROSSE WI   CLOUDY    36  23  59 SE16      29.82F
$$

  *****  SOME NATIONAL WEATHER *****

CITY           SKY/WX    TMP DP  RH WIND       PRES   REMARKS
LA GUARDIA NY  CLEAR     32  11  41 N9        30.16R WCI  24
RALEIGH NC     PTCLDY    39   9  29 CALM      30.27R
ATLANTA GA     CLEAR     53  20  27 W3        30.23R
NEW ORLEANS LA PTCLDY    65  43  44 SE9       30.23R
OKLAHOMA CITY  MOCLDY    77  41  27 SW18      29.87S
ALBUQUERQUE NM PTSUNNY   62  27  26 NW14      30.16S
SALT LAKE CITY CLOUDY    48  37  65 N12       30.30R
LOS ANGELES CA CLOUDY    63  53  70 W13       30.08R
BOISE ID       SUNNY     46  37  71 NW6       30.33S
SEATTLE WA     MOSUNNY   52  44  74 N6        30.36F
$$

*** WEATHER ACROSS MANITOBA...SASKATCHEWAN AND ONTARIO ***
                ***ONTARIO***

CITY           SKY/WX    TMP DP  RH WIND       PRES   REMARKS
GERALDTON      LGT SNOW  27  25  93 SE8       29.94  VSB 3/4 WCI  18
THUNDER BAY    CLOUDY    28  27  93 E7        29.87F WCI  21
SIOUX LOOKOUT  LGT SNOW  28  27  93 SE3       29.78S VSB 1
TORONTO        PTCLDY    25   5  42 S5        30.28S WCI  19
BIG TROUT LK   PTCLDY    -6 -11  77 N3        30.15R
PICKLE LAKE    SNOW      16  12  86 E10G17    29.88F VSB 3/8 WCI   3
DRYDEN         LGT SNOW  27  27 100 SW3       29.79S
KENORA         FRZ DRZL  27  27 100 CALM      29.80R FOG
$$
                *** MANITOBA***

CITY           SKY/WX    TMP DP  RH WIND       PRES   REMARKS
BRANDON        MOCLDY    21  16  79 N18       30.02R WCI   6
DAUPHIN        CLOUDY    14  10  85 N8        30.09R WCI   3
ISLAND LAKE    CLOUDY     0  -8  71 NE13      30.14F WCI -18
PILOT MOUND      N/A     21  19  93 NW12        N/A  WCI   9
THE PAS        LGT SNOW   1  -2  85 N7        30.20R WCI -11
THOMPSON       LGT SNOW  -8 -15  71 N5        30.26R WCI -19
WINNIPEG       CLOUDY    30  27  86 N15       29.91R WCI  19
LYNN LAKE      LGT SNOW  -8 -13  77 N5        30.23R WCI -19
CHURCHILL      CRYSTALS -18 -26  69 W14       30.32S WCI -42
GILLAM         FLURRIES -11 -20  64 N6        30.27R WCI -25
$$
                ***SASKATCHEWAN***

CITY           SKY/WX    TMP DP  RH WIND       PRES   REMARKS
ESTEVAN        FLURRIES  28  27  93 NW24G31   30.10R WCI  14
KINDERSLEY     PTCLDY    27  21  80 NW12G21   30.27R WCI  16
LLOYDMINSTER   PTCLDY    12   5  73 NW17      30.27R WCI  -5
PRINCE ALBERT  FLURRIES  16  10  79 NW15      30.23R WCI   1
REGINA         CLOUDY    28  27  93 NW21      30.15R WCI  15
YORKTON        CLOUDY    18  14  86 W9        30.09R WCI   6
N. BATTLEFORD  PTCLDY    19  12  73 NW17G24   30.29R WCI   4
LA RONGE       FLURRIES   5   0  78 W8        30.27R WCI  -8
SASKATOON      CLOUDY    25  19  80 NW16G23   30.24R WCI  12
SWIFT CURRENT  MOCLDY    30  30 100 NW22G35   30.22R WCI  17
$$
NOTE: THESE ARE AUTOMATED STATIONS WITH LIMITED QUALITY CONTROL
      "FAIR" INDICATES FEW OR NO CLOUDS BELOW 12,000 FEET WITH NO
      SIGNIFICANT WEATHER AND/OR OBSTRUCTIONS TO VISIBILITY.
      SKY/WX - SKY CONDITION AND SIGNIFICANT WEATHER.
      TMP - AIR TEMPERATURE.    DP   - DEWPOINT TEMPERATURE.
      RH  - RELATIVE HUMIDITY.  PRES - PRESSURE.
      HX  - HEAT INDEX.         WCI  - WIND CHILL INDEX.
$



USA.gov is the U.S. government's official web portal to all federal, state and local government web resources and services.